TimeCDT,TemperatureF,Dew PointF,Humidity,Sea Level PressureIn,VisibilityMPH,Wind Direction,Wind SpeedMPH,Gust SpeedMPH,PrecipitationIn,Events,Conditions,WindDirDegrees,DateUTC
12:12 AM,51.8,48.2,88,29.91,10.0,NNW,4.6,-,N/A,,Clear,330,2012-10-02 05:12:00
12:31 AM,51.8,48.2,88,29.91,10.0,NNW,3.5,-,N/A,,Clear,330,2012-10-02 05:31:00
12:51 AM,51.8,48.2,88,29.91,10.0,NNW,3.5,-,N/A,,Clear,330,2012-10-02 05:51:00
1:31 AM,50.0,46.4,87,29.92,10.0,Calm,Calm,-,N/A,,Clear,0,2012-10-02 06:31:00
2:12 AM,50.0,46.4,87,29.92,10.0,NW,4.6,-,N/A,,Clear,320,2012-10-02 07:12:00
2:31 AM,46.4,44.6,93,29.92,10.0,NW,3.5,-,N/A,,Clear,320,2012-10-02 07:31:00
2:51 AM,46.4,44.6,93,29.92,10.0,NNW,4.6,-,N/A,,Clear,330,2012-10-02 07:51:00
3:12 AM,46.4,44.6,93,29.92,10.0,NW,5.8,-,N/A,,Clear,310,2012-10-02 08:12:00
3:31 AM,46.4,44.6,93,29.93,10.0,NNW,6.9,-,N/A,,Clear,340,2012-10-02 08:31:00
4:12 AM,46.4,44.6,93,29.93,10.0,NNW,4.6,-,N/A,,Clear,340,2012-10-02 09:12:00
4:31 AM,46.4,44.6,93,29.93,10.0,NNW,5.8,-,N/A,,Clear,330,2012-10-02 09:31:00
4:51 AM,46.4,44.6,93,29.93,10.0,NNW,8.1,-,N/A,,Clear,330,2012-10-02 09:51:00
5:12 AM,46.4,44.6,93,29.93,10.0,NNW,6.9,-,N/A,,Clear,340,2012-10-02 10:12:00
5:31 AM,46.4,44.6,93,29.93,7.0,NNW,4.6,-,N/A,,Clear,330,2012-10-02 10:31:00
5:52 AM,46.4,44.6,93,29.94,7.0,NW,3.5,-,N/A,,Clear,320,2012-10-02 10:52:00
6:11 AM,46.4,44.6,93,29.94,7.0,NW,3.5,-,N/A,,Clear,320,2012-10-02 11:11:00
6:31 AM,46.4,44.6,93,29.94,7.0,NW,3.5,-,N/A,,Clear,310,2012-10-02 11:31:00
6:52 AM,46.4,44.6,93,29.95,7.0,Calm,Calm,-,N/A,,Clear,0,2012-10-02 11:52:00
7:11 AM,44.6,42.8,93,29.96,4.0,Calm,Calm,-,N/A,,Clear,0,2012-10-02 12:11:00
7:31 AM,44.6,42.8,93,29.96,5.0,Calm,Calm,-,N/A,,Clear,0,2012-10-02 12:31:00
7:52 AM,44.6,42.8,93,29.97,5.0,NW,4.6,-,N/A,,Clear,320,2012-10-02 12:52:00
8:11 AM,46.4,44.6,93,29.97,5.0,NW,4.6,-,N/A,,Clear,310,2012-10-02 13:11:00
8:31 AM,46.4,44.6,93,29.97,0.5,NW,4.6,-,N/A,Fog,Fog,320,2012-10-02 13:31:00
8:52 AM,48.2,46.4,93,29.97,7.0,NNW,3.5,-,N/A,,Scattered Clouds,340,2012-10-02 13:52:00
9:11 AM,51.8,50.0,94,29.97,10.0,NNW,3.5,-,N/A,,Clear,330,2012-10-02 14:11:00
9:31 AM,51.8,48.2,88,29.97,10.0,Calm,Calm,-,N/A,,Clear,0,2012-10-02 14:31:00
9:52 AM,53.6,46.4,77,29.97,10.0,Calm,Calm,-,N/A,,Clear,0,2012-10-02 14:52:00
10:11 AM,53.6,44.6,72,29.97,10.0,Calm,Calm,-,N/A,,Clear,0,2012-10-02 15:11:00
10:31 AM,57.2,44.6,63,29.97,10.0,Calm,Calm,-,N/A,,Clear,0,2012-10-02 15:31:00
10:52 AM,59.0,44.6,59,29.97,10.0,SE,4.6,-,N/A,,Clear,140,2012-10-02 15:52:00
11:11 AM,59.0,42.8,55,29.96,10.0,Calm,Calm,-,N/A,,Clear,0,2012-10-02 16:11:00
11:31 AM,60.8,41.0,48,29.95,10.0,SE,5.8,-,N/A,,Clear,130,2012-10-02 16:31:00
11:51 AM,64.4,41.0,42,29.95,10.0,SE,3.5,-,N/A,,Clear,130,2012-10-02 16:51:00
12:11 PM,68.0,42.8,40,29.94,10.0,SSE,3.5,-,N/A,,Clear,150,2012-10-02 17:11:00
12:31 PM,66.2,41.0,40,29.94,10.0,East,4.6,-,N/A,,Clear,90,2012-10-02 17:31:00
12:51 PM,68.0,39.2,35,29.93,10.0,SE,5.8,-,N/A,,Clear,140,2012-10-02 17:51:00
1:11 PM,68.0,39.2,35,29.92,10.0,SE,5.8,-,N/A,,Clear,130,2012-10-02 18:11:00
1:31 PM,68.0,37.4,33,29.91,10.0,ESE,4.6,-,N/A,,Clear,110,2012-10-02 18:31:00
1:51 PM,68.0,35.6,30,29.90,10.0,SSE,3.5,-,N/A,,Clear,160,2012-10-02 18:51:00
2:11 PM,68.0,35.6,30,29.89,10.0,Calm,Calm,-,N/A,,Clear,0,2012-10-02 19:11:00
2:31 PM,68.0,35.6,30,29.89,10.0,SSW,3.5,-,N/A,,Clear,210,2012-10-02 19:31:00
2:51 PM,69.8,35.6,28,29.89,10.0,Calm,Calm,-,N/A,,Clear,0,2012-10-02 19:51:00
3:11 PM,69.8,33.8,27,29.88,10.0,East,3.5,-,N/A,,Clear,80,2012-10-02 20:11:00
3:31 PM,71.6,35.6,27,29.88,10.0,SSE,3.5,-,N/A,,Clear,150,2012-10-02 20:31:00
3:51 PM,69.8,35.6,28,29.88,10.0,Calm,Calm,-,N/A,,Clear,0,2012-10-02 20:51:00
4:11 PM,69.8,35.6,28,29.87,10.0,Calm,Calm,-,N/A,,Clear,0,2012-10-02 21:11:00
4:31 PM,69.8,35.6,28,29.87,10.0,Calm,Calm,-,N/A,,Clear,0,2012-10-02 21:31:00
4:51 PM,69.8,37.4,31,29.87,10.0,ESE,3.5,-,N/A,,Clear,110,2012-10-02 21:51:00
5:11 PM,69.8,37.4,31,29.87,10.0,East,3.5,-,N/A,,Clear,90,2012-10-02 22:11:00
5:31 PM,68.0,37.4,33,29.87,10.0,Calm,Calm,-,N/A,,Clear,0,2012-10-02 22:31:00
5:51 PM,68.0,39.2,35,29.88,10.0,Calm,Calm,-,N/A,,Clear,0,2012-10-02 22:51:00
6:11 PM,68.0,44.6,43,29.88,10.0,Calm,Calm,-,N/A,,Clear,0,2012-10-02 23:11:00
6:31 PM,62.6,41.0,45,29.88,10.0,Calm,Calm,-,N/A,,Clear,0,2012-10-02 23:31:00
7:11 PM,59.0,42.8,55,29.89,10.0,Calm,Calm,-,N/A,,Clear,0,2012-10-03 00:11:00
7:31 PM,57.2,42.8,59,29.89,10.0,Calm,Calm,-,N/A,,Clear,0,2012-10-03 00:31:00
8:12 PM,53.6,46.4,77,29.89,10.0,Calm,Calm,-,N/A,,Clear,0,2012-10-03 01:12:00
8:31 PM,53.6,48.2,82,29.89,10.0,Calm,Calm,-,N/A,,Clear,0,2012-10-03 01:31:00
8:51 PM,51.8,46.4,82,29.90,10.0,Calm,Calm,-,N/A,,Clear,0,2012-10-03 01:51:00
9:12 PM,51.8,46.4,82,29.90,10.0,Calm,Calm,-,N/A,,Clear,0,2012-10-03 02:12:00
9:31 PM,51.8,44.6,76,29.91,10.0,Calm,Calm,-,N/A,,Clear,0,2012-10-03 02:31:00
9:52 PM,48.2,42.8,82,29.91,10.0,Calm,Calm,-,N/A,,Clear,0,2012-10-03 02:52:00
10:11 PM,50.0,44.6,82,29.91,10.0,Calm,Calm,-,N/A,,Clear,0,2012-10-03 03:11:00
10:31 PM,48.2,44.6,87,29.92,10.0,Calm,Calm,-,N/A,,Clear,0,2012-10-03 03:31:00
10:52 PM,46.4,44.6,93,29.91,10.0,Calm,Calm,-,N/A,,Clear,0,2012-10-03 03:52:00
11:11 PM,46.4,42.8,87,29.91,10.0,Calm,Calm,-,N/A,,Clear,0,2012-10-03 04:11:00
11:31 PM,46.4,42.8,87,29.91,10.0,Calm,Calm,-,N/A,,Clear,0,2012-10-03 04:31:00
11:52 PM,46.4,42.8,87,29.91,10.0,Calm,Calm,-,N/A,,Clear,0,2012-10-03 04:52:00